GW0007 Weather Reports


Display with metric or nautical units.
time (UTC)temp
F
wind
direction
speed
MPH
gust
MPH
rain 1hr
in
rain 24hr
in
rain mn
in
humidity
%
barometer
mb
20260902234543 79 267 11.0 21.0 0.00 0.00 0.00 18 1007.2
20260902233044 79 266 9.0 22.0 0.00 0.00 0.00 20 1006.9
20260902231551 79 259 10.0 24.0 0.00 0.00 0.00 19 1006.7
20260902230046 80 235 8.0 22.0 0.00 0.00 0.00 19 1006.6
20260902224545 81 293 12.0 24.0 0.00 0.00 0.00 19 1006.6
20260902223050 81 279 12.0 23.0 0.00 0.00 0.00 21 1006.5
20260902221546 81 319 13.0 25.0 0.00 0.00 0.00 23 1006.5
20260902220049 80 244 3.0 8.0 0.00 0.00 0.00 23 1006.7
20260902214542 79 316 5.0 10.0 0.00 0.00 0.00 29 1006.9
20260902213046 77 311 3.0 6.0 0.00 0.00 0.00 36 1007.2
20260902211553 78 311 6.0 9.0 0.00 0.00 0.00 34 1007.2
20260902210113 81 341 8.0 11.0 0.00 0.00 0.00 30 1007.2
20260902204554 82 158 5.0 8.0 0.00 0.00 0.00 27 1007.2
20260902203045 82 80 0.0 5.0 0.00 0.00 0.00 28 1007.5
20260902201609 81 167 2.0 11.0 0.00 0.00 0.00 30 1008.0
20260902200046 80 247 6.0 11.0 0.00 0.00 0.00 29 1008.3
20260902194544 78 293 5.0 17.0 0.00 0.00 0.00 37 1008.5
20260902193054 77 312 2.0 6.0 0.00 0.00 0.00 46 1008.5
20260902191600 76 0 0.0 4.0 0.00 0.00 0.00 46 1008.6
20260902190049 76 39 2.0 7.0 0.00 0.00 0.00 45 1008.5
20260902184624 77 19 0.0 2.0 0.00 0.00 0.00 41 1008.8
20260902183054 76 4 0.0 2.0 0.00 0.00 0.00 43 1009.2
20260902181603 73 305 1.0 5.0 0.00 0.00 0.00 48 1009.4
20260902180110 72 276 1.0 2.0 0.00 0.00 0.00 52 1009.6
20260902174600 71 0 0.0 1.0 0.00 0.00 0.00 59 1009.8
20260902173044 72 0 0.0 4.0 0.00 0.00 0.00 56 1009.9
20260902171555 71 117 1.0 5.0 0.00 0.00 0.00 49 1010.1
20260902170051 71 158 3.0 6.0 0.00 0.00 0.00 49 1010.0
20260902164548 71 129 3.0 7.0 0.00 0.00 0.00 50 1009.9
20260902163043 71 131 4.0 8.0 0.00 0.00 0.00 53 1009.9
20260902161555 70 114 4.0 7.0 0.00 0.00 0.00 52 1010.0
20260902160051 70 101 3.0 6.0 0.00 0.00 0.00 54 1010.0
20260902154543 69 79 0.0 2.0 0.00 0.00 0.00 55 1010.0
20260902153052 67 75 2.0 5.0 0.00 0.00 0.00 59 1010.2
20260902151550 64 139 1.0 3.0 0.00 0.00 0.00 63 1010.4
20260902150044 60 235 1.0 3.0 0.00 0.00 0.00 70 1010.6
20260902144556 60 279 0.0 1.0 0.00 0.00 0.00 69 1010.8
20260902143053 60 291 1.0 2.0 0.00 0.00 0.00 70 1010.7
20260902141542 61 0 0.0 3.0 0.00 0.00 0.00 69 1010.8
20260902140055 61 239 3.0 8.0 0.00 0.00 0.00 63 1011.1
20260902134555 60 264 2.0 4.0 0.00 0.00 0.00 67 1011.1
20260902133045 61 232 1.0 7.0 0.00 0.00 0.00 66 1011.0
20260902131542 59 251 2.0 7.0 0.00 0.00 0.00 67 1010.7
20260902130042 58 250 4.0 9.0 0.00 0.00 0.00 70 1011.0
20260902124545 59 289 4.0 14.0 0.00 0.00 0.00 68 1011.3
20260902123046 61 255 4.0 10.0 0.00 0.00 0.00 62 1011.1
20260902121542 63 245 7.0 14.0 0.00 0.00 0.00 58 1011.2
20260902120051 62 198 8.0 14.0 0.00 0.00 0.00 61 1011.3
20260902114548 61 243 7.0 11.0 0.00 0.00 0.00 64 1010.9
20260902113054 60 252 6.0 11.0 0.00 0.00 0.00 67 1010.9
20260902111549 61 271 4.0 14.0 0.00 0.00 0.00 66 1011.0
20260902110044 61 232 8.0 13.0 0.00 0.00 0.00 65 1011.2
20260902104543 61 251 6.0 13.0 0.00 0.00 0.00 64 1011.2
20260902103049 62 293 4.0 10.0 0.00 0.00 0.00 64 1011.4
20260902101545 63 331 6.0 14.0 0.00 0.00 0.00 60 1011.6
20260902100104 64 281 7.0 17.0 0.00 0.00 0.00 59 1011.5
20260902094607 64 280 6.0 21.0 0.00 0.00 0.00 61 1011.6
20260902093047 65 203 9.0 19.0 0.00 0.00 0.00 56 1011.6
20260902091550 65 269 5.0 13.0 0.00 0.00 0.00 56 1011.5
20260902090044 65 228 9.0 17.0 0.00 0.00 0.00 54 1011.6
20260902084553 65 262 9.0 18.0 0.00 0.00 0.00 56 1012.0
20260902083116 62 304 6.0 13.0 0.00 0.00 0.00 64 1012.0
20260902081545 58 276 7.0 16.0 0.00 0.00 0.00 72 1012.1
20260902080057 54 283 1.0 4.0 0.00 0.00 0.00 82 1012.0
20260902074552 54 327 3.0 8.0 0.00 0.00 0.00 81 1012.1
20260902073048 55 0 0.0 3.0 0.00 0.00 0.00 80 1011.7
20260902071544 54 286 0.0 2.0 0.00 0.00 0.00 84 1011.4
20260902070044 54 0 0.0 1.0 0.00 0.00 0.00 83 1011.5
20260902064551 54 0 0.0 1.0 0.00 0.00 0.00 83 1011.6
20260902063046 55 0 0.0 2.0 0.00 0.00 0.00 82 1011.6
20260902061552 56 129 2.0 4.0 0.00 0.00 0.00 78 1011.7
20260902060052 56 139 2.0 4.0 0.00 0.00 0.00 77 1011.4
20260902054543 57 248 1.0 2.0 0.00 0.00 0.00 78 1011.5
20260902053044 56 311 0.0 1.0 0.00 0.00 0.00 80 1011.6
20260902051546 56 311 1.0 3.0 0.00 0.00 0.00 81 1011.7
20260902050049 59 166 2.0 3.0 0.00 0.00 0.00 72 1011.6
20260902044544 60 108 0.0 1.0 0.00 0.00 0.00 71 1011.5
20260902043043 61 0 0.0 2.0 0.00 0.00 0.00 65 1011.4
20260902041553 64 0 2.0 3.0 0.00 0.00 0.00 59 1011.5
20260902040050 63 290 0.0 1.0 0.00 0.00 0.00 59 1011.6
20260902034556 65 290 1.0 3.0 0.00 0.00 0.00 56 1011.6
20260902033058 66 267 1.0 4.0 0.00 0.00 0.00 54 1011.6
20260902031557 65 251 2.0 5.0 0.00 0.00 0.00 56 1011.4
20260902030049 65 226 2.0 4.0 0.00 0.00 0.00 56 1011.5
20260902024547 65 240 3.0 6.0 0.00 0.00 0.00 59 1011.3
20260902023052 67 290 1.0 4.0 0.00 0.00 0.00 59 1011.0
20260902021542 70 276 1.0 4.0 0.00 0.00 0.00 57 1010.7
20260902020418 72 129 3.0 4.0 0.00 0.00 0.00 48 1010.4
20260902014546 72 85 0.0 2.0 0.00 0.00 0.00 53 1010.5
20260902013044 74 60 1.0 2.0 0.00 0.00 0.00 48 1010.4
20260902011545 76 13 1.0 3.0 0.00 0.00 0.00 46 1010.6
20260902010043 79 13 0.0 1.0 0.00 0.00 0.00 50 1010.6
20260902004553 79 15 1.0 3.0 0.00 0.00 0.00 42 1010.7
20260902003050 80 60 1.0 4.0 0.00 0.00 0.00 38 1010.7
20260902001546 81 360 1.0 3.0 0.00 0.00 0.00 36 1010.7
20260902000043 81 51 1.0 5.0 0.00 0.00 0.00 36 1010.8